Regional Weather Roundup
Issued by NWS

Home | Current Version | Previous Version | Text Only | Print | Product List | Glossary Off
Versions: 1 2 3 4 5 6 7 8 9 10 11 12 13 14 15 16 17 18 19 20 21 22 23 24 25 26 27 28 29 30 31 32 33 34 35 36 37 38 39 40 41 42 43 44 45 46 47 48 49 50

000
ASUS43 KDTX 291310
RWRMI
MICHIGAN HOURLY REGIONAL WEATHER ROUNDUP
NATIONAL WEATHER SERVICE DETROIT/PONTIAC MI
900 AM EDT FRI MAY 29 2015

NOTE: "FAIR" INDICATES FEW OR NO CLOUDS BELOW 12,000 FEET WITH NO
SIGNIFICANT WEATHER AND/OR OBSTRUCTION TO VISIBILITY.

MIZ047>049-052>055-059>063-066>070-074>076-081>083-291400-
SOUTHEAST LOWER MICHIGAN

CITY           SKY/WX    TMP DP  RH WIND       PRES   REMARKS
ADRIAN         PTSUNNY   70  62  76 S5        30.13F
ALMA           CLOUDY    66  59  78 S5        30.10S
ANN ARBOR      PTSUNNY   70  61  73 S6        30.13F
BAD AXE        CLOUDY    67  53  61 S12       30.14F
CARO           CLOUDY    68  57  67 SE7       30.12S
DETROIT CITY   MOSUNNY   69  58  67 SE5       30.15F
DETROIT        CLOUDY    72  60  66 S6        30.14F
FLINT          PTSUNNY   70  58  65 S9        30.12F
GROSSE ILE     SUNNY     70  61  73 S9        30.13F
HILLSDALE      PTSUNNY   70  64  81 S7        30.13S
HOWELL         PTSUNNY   69  59  70 S7        30.13S

CITY           SKY/WX    TMP DP  RH WIND       PRES   REMARKS
JACKSON        PTSUNNY   68  61  78 S7        30.13S
LAMBERTVILLE   CLOUDY    72  61  68 S5        30.14S
LANSING        CLOUDY    67  58  72 S7        30.11F
LAPEER         FAIR      68  55  64 S5        30.14F
MASON          PTSUNNY   65  59  82 S6        30.12F
MONROE         MOSUNNY   72  63  73 SE5       30.12F
MT. CLEMENS    CLOUDY    68  60  76 SE9       30.13F
PONTIAC        CLOUDY    68  57  68 S7        30.14F
PORT HOPE        N/A     67  54  63 SE8       30.11F
PORT HURON     PTSUNNY   66  57  72 SE5       30.16F
TRI CITIES     CLOUDY    69  56  62 S9        30.11F
MIDLAND        FAIR      68  55  63 S7        30.09F
TROY           MOSUNNY   70  59  68 SE3       30.16F
SAGINAW HB     CLOUDY    70  55  60 S8        30.10S
$$
MIZ043>046-050>051-056>058-064>065-071>073-077>080-291400-
SOUTHWEST LOWER MICHIGAN

CITY           SKY/WX    TMP DP  RH WIND       PRES   REMARKS
BATTLE CREEK   CLOUDY    69  61  75 S8        30.11F
BENTON HARBOR  CLOUDY    69  62  78 S9        30.07R
BIG RAPIDS     PTSUNNY   65  56  73 SE7       30.07F
COLDWATER      PTSUNNY   69  62  77 SE6       30.12R
FREMONT        FAIR      69  60  72 S7        30.06S
HOLLAND        CLOUDY    68  60  75 S9        30.08R
GRAND RAPIDS   CLOUDY    67  60  78 SE9       30.09R
IONIA          FAIR      67  58  72 S7        30.09R
KALAMAZOO      PTSUNNY   68  61  78 S7        30.10S
LUDINGTON      PTSUNNY   71  62  73 SE5       30.04R
MARSHALL       PTSUNNY   69  62  77 SE6       30.11S
MOUNT PLEASANT CLOUDY    65  56  73 S3        30.09S
MUSKEGON       CLOUDY    70  60  70 S8        30.06R
SOUTH HAVEN    CLOUDY    69  61  76 S5        30.07S
$$
MIZ016>042-291400-
NORTHERN LOWER MICHIGAN

CITY           SKY/WX    TMP DP  RH WIND       PRES   REMARKS
ALPENA         CLOUDY    67  55  65 S9        30.10F
BEAVER ISLAND  CLOUDY    64  55  73 S9        30.01F
BELLAIRE       CLOUDY    68  56  64 S8        30.04S
CADILLAC       PTSUNNY   67  58  72 S5        30.07F
CHARLEVOIX     CLOUDY    65  58  76 SE6       30.05F
FRANKFORT      CLOUDY    71  56  58 SE8       30.02S
GAYLORD        CLOUDY    65  56  72 S12       30.07F
GRAYLING       CLOUDY    65  55  70 SE6       30.08F
HARBOR SPRINGS CLOUDY    67  58  71 CALM      30.04S
HOUGHTON LAKE  CLOUDY    65  54  67 S9G18     30.10S
MANISTEE       PTSUNNY   70  57  64 S7        30.03S
OSCODA         CLOUDY    63  55  74 SE3       30.11F
PELLSTON       CLOUDY    64  58  80 SE6       30.04F
ROGERS CITY    CLOUDY    68  57  67 S8G16     30.08F
TRAVERSE CITY  CLOUDY    70  57  63 VRB6      30.02F
$$
MIZ007>008-015-291400-
EASTERN UPPER MICHIGAN

CITY           SKY/WX    TMP DP  RH WIND       PRES   REMARKS
KINROSS        PTSUNNY   61  55  82 SE8       30.05S
MACKINAC ISLAN CLOUDY    62  56  82 SE3       30.03F
NEWBERRY       CLOUDY    64  56  75 S13       30.01F
S. S. MARIE    PTSUNNY   60  53  77 VRB5      30.05F
MUNISING         N/A     62  53  72 S7        29.97F
$$
MIZ004>006-011>014-085-291400-
CENTRAL UPPER MICHIGAN

CITY           SKY/WX    TMP DP  RH WIND       PRES   REMARKS
MANISTIQUE     CLOUDY    55  52  90 SE5       30.00F
ESCANABA       CLOUDY    61  52  72 S6        29.97S
MENOMINEE      CLOUDY    64  54  68 SW7       29.97S
SAWYER-GWINN   SUNNY     57  54  88 S9        29.97
$$
MIZ001>003-009>011-084-291400-
WESTERN UPPER MICHIGAN

CITY           SKY/WX    TMP DP  RH WIND       PRES   REMARKS
IRON MOUNTAIN  CLOUDY    60  56  86 SE3       29.95F
HOUGHTON       PTSUNNY   63  55  75 SW7       29.90F
COPPER HARBOR    N/A     64  55  72 SW8       29.88F
IRONWOOD       CLOUDY    63  57  82 S6        29.86F
$$

ABBREVIATIONS USED IN REMARKS
   TC - TEMPERATURE IN CELSIUS
  WCI - WIND CHILL INDEX
   HX - HEAT INDEX
  VSB - VISIBILITY




USA.gov is the U.S. government's official web portal to all federal, state and local government web resources and services.